RH
49 48 35 29 31 26 18 16 16 18 18 14 9 8 12 24 13 6 6 6 6 6 6 6 6 10 24 91 85 54 59 27 28 29 28 30 30 29
39 31 86 40 36 28 28 29 25 24 20 15 12 8 8 8 9 9 10 9 9 10 11 10 10 9 10 18 16 22 74 82 72 72 82 32 30 28
38 37 35 32 30 28 27 28 26 24 21 14 13 13 13 11 10 10 9 9 10 11 11 12 12 11 12 12 12 15 52 92 99 64 73 88 71 64
49 48 46 43 38 36 34 32 30 27 23 17 12 15 15 15 14 13 11 10 10 11 12 11 11 10 10 11 12 12 33 74 90 96 94 57 50 51
64 59 55 52 47 43 41 38 34 30 25 19 13 15 16 18 17 16 16 14 13 12 10 9 8 8 8 9 11 12 20 57 90 100 98 91 87 100
78 73 67 60 55 51 46 41 36 31 25 20 15 14 13 14 16 17 19 16 12 10 9 8 9 11 11 12 13 17 30 58 90 87 93 95 100 99
97 87 74 68 62 55 49 44 38 35 30 24 19 17 15 15 16 17 14 12 9 9 10 12 14 20 24 26 30 35 49 100 100 100 100 99 91 96
99 99 97 90 81 63 53 48 42 36 32 28 25 20 19 19 17 14 12 12 9 13 23 31 29 25 29 39 47 49 77 100 97 96 97 100 99 98
94 97 98 94 76 62 52 46 40 35 33 30 26 23 21 18 15 15 21 24 24 31 39 48 58 58 52 51 49 55 58 97 97 99 100 100 99 100
88 93 85 72 63 58 52 42 39 40 37 36 30 24 18 14 20 31 33 30 29 33 54 55 70 83 79 55 70 61 66 100 100 100 100 100 100 93
84 75 68 65 62 54 49 49 46 44 41 36 27 19 16 16 19 23 30 39 48 56 67 77 91 78 84 100 100 99 100 100 100 100 100 100 95 95
75 73 70 64 65 61 57 54 50 47 39 32 36 39 44 40 32 34 31 34 51 61 86 97 96 70 68 85 99 96 99 91 100 100 100 84 86 84
80 79 78 75 68 62 57 51 49 43 43 52 57 59 62 51 40 35 28 43 66 88 97 100 99 87 68 84 100 100 99 100 100 100 98 94 86 98
94 87 69 58 43 38 44 44 47 43 56 56 46 41 52 50 37 38 36 45 82 100 100 100 100 99 100 100 100 100 100 100 100 97 96 98 100 100
99 91 57 42 42 35 44 47 46 43 40 47 46 36 30 33 32 39 45 62 95 100 100 100 100 100 100 100 100 100 100 100 97 100 96 100 100 99
98 41 24 23 31 41 57 63 59 43 36 38 40 33 32 39 41 48 63 93 100 100 100 100 100 100 100 100 96 94 97 98 99 98 100 100 100 100
97 54 24 18 40 71 77 78 73 59 61 61 49 44 45 66 53 54 72 96 100 100 100 100 100 100 100 99 100 99 95 95 99 100 100 100 100 100
100 88 30 17 17 38 31 34 48 62 77 88 97 87 85 80 61 58 71 81 99 100 100 100 100 96 94 97 97 95 99 100 99 100 100 100 100 96
100 98 36 18 17 19 19 19 42 79 88 93 99 100 100 89 83 86 76 73 67 77 88 93 95 93 100 100 100 99 99 100 94 84 69 62 88 100
100 98 50 22 16 16 17 16 38 92 100 100 93 100 100 98 96 100 100 100 100 99 99 99 100 100 100 100 100 98 84 72 55 49 43 39 37 63
100 97 65 34 18 15 15 15 16 58 99 100 100 100 100 100 100 100 100 91 67 85 92 85 73 60 46 45 43 35 27 28 25 17 17 22 21 39
100 100 95 56 32 20 16 18 18 31 53 97 100 100 100 100 100 100 99 30 22 22 21 16 13 15 22 22 12 11 10 10 13 24 30 26 30 35
100 100 100 98 71 45 39 23 19 22 25 33 71 74 40 43 68 100 84 42 25 23 25 23 12 9 8 8 8 8 8 10 16 21 27 26 28 26
Wind_Speed
58 56 55 55 54 54 55 52 52 50 50 51 50 51 51 53 53 52 51 51 52 53 54 56 59 62 63 61 61 63 68 67 65 65 66 61 61 61
59 58 53 56 55 55 54 54 53 52 52 52 52 52 51 52 52 51 52 53 53 54 55 56 57 57 61 65 66 66 65 67 69 72 65 63 63 61
61 59 57 58 56 56 56 55 55 54 54 53 53 53 53 54 55 55 56 56 56 57 58 59 60 61 63 64 68 68 69 69 69 66 69 71 69 68
59 58 57 58 57 57 56 56 56 56 57 57 55 54 54 55 56 57 58 59 60 61 61 62 63 65 66 67 69 71 72 72 69 69 67 62 66 69
59 59 57 58 57 57 57 57 58 58 58 58 58 57 56 56 56 57 58 60 61 63 64 65 67 68 69 70 70 72 73 72 72 70 70 72 73 76
57 57 56 57 57 57 57 57 57 58 59 58 59 58 59 59 58 57 57 60 63 65 67 68 69 70 72 73 72 69 68 67 67 69 70 75 77 67
62 59 54 53 53 54 55 55 56 56 57 58 59 58 59 58 58 58 59 61 62 64 67 67 68 67 66 64 63 60 61 60 57 59 68 74 79 79
54 56 56 56 53 52 52 53 54 55 56 57 57 56 56 56 56 57 59 59 59 56 53 54 56 56 55 55 51 50 55 58 58 58 55 55 55 58
49 49 49 50 51 52 52 52 52 53 54 54 53 53 53 53 54 56 53 52 53 53 55 52 52 52 56 55 51 50 48 48 48 47 48 50 49 51
47 47 49 50 50 51 51 50 50 51 51 52 52 51 51 51 51 54 53 54 55 53 56 55 53 49 50 51 51 48 44 49 48 45 43 49 47 47
47 47 48 48 49 49 49 49 50 50 50 51 51 50 51 51 52 57 57 57 56 56 56 53 47 48 49 46 47 51 50 45 42 46 50 52 50 49
47 47 48 49 49 48 49 49 49 49 51 50 47 45 45 48 50 52 55 59 60 58 52 50 44 44 43 50 51 53 53 48 50 50 56 53 55 50
47 48 47 46 46 47 49 49 50 52 49 45 43 42 43 40 43 48 53 58 58 54 49 49 47 48 51 52 55 51 53 52 53 56 60 59 56 49
48 48 47 44 44 46 48 49 50 51 51 49 47 45 44 44 45 45 51 54 51 51 50 49 50 52 52 51 50 50 49 53 57 62 63 61 53 49
45 46 42 41 45 46 48 46 49 49 54 55 54 47 42 43 45 42 44 44 46 47 48 49 51 53 47 43 47 52 52 56 61 65 62 55 51 46
43 40 38 38 41 43 44 41 42 45 47 48 49 47 42 42 40 37 39 38 42 42 43 43 42 41 41 45 48 52 57 62 67 60 50 47 44 45
45 41 38 37 35 35 35 36 39 40 40 42 44 44 42 40 40 34 33 34 36 39 39 39 43 44 48 50 54 57 63 62 53 46 42 44 47 50
45 43 40 38 36 33 31 29 31 34 33 33 34 37 37 38 38 30 28 30 35 40 42 42 45 50 54 58 56 50 47 44 42 44 46 48 50 48
46 44 41 40 36 34 31 30 29 32 30 32 34 35 35 30 30 26 25 22 23 27 31 34 36 38 41 41 40 41 42 41 41 42 41 40 42 46
49 47 43 40 38 35 34 31 25 26 31 33 32 37 36 33 31 27 26 27 28 30 32 32 33 35 39 41 40 41 41 41 40 40 40 42 44 47
49 50 45 41 37 35 35 31 33 20 28 33 30 32 31 32 33 33 34 32 33 34 35 36 38 39 40 40 39 38 38 38 39 41 43 46 47 49
45 43 46 44 39 35 33 32 32 30 25 29 31 29 30 34 37 40 37 33 32 33 34 35 37 38 38 39 38 39 40 40 43 45 46 49 50 51
39 40 39 42 41 40 37 33 33 32 32 34 30 29 31 35 31 34 33 36 38 39 39 39 40 40 40 41 42 43 44 46 47 49 53 54 56 59
Wind_Direction
236 238 238 241 242 242 243 243 243 246 249 253 254 254 255 257 260 261 263 265 266 268 270 271 272 272 272 274 275 279 275 275 277 276 276 277 277 281
236 238 231 241 242 243 244 245 246 249 251 253 255 258 260 259 260 260 261 263 266 268 269 271 273 274 274 272 276 276 275 274 274 274 275 278 279 280
235 237 239 241 243 244 245 247 250 252 254 254 255 257 260 260 260 261 262 265 267 269 271 273 273 274 274 275 275 275 273 275 275 273 271 269 274 276
236 237 239 241 242 245 247 250 251 253 253 255 256 257 259 260 262 265 267 269 271 273 274 274 275 275 275 275 274 274 272 272 272 274 274 273 270 272
235 237 238 241 243 245 248 251 253 254 255 255 255 256 258 260 263 266 268 271 273 275 276 276 276 275 275 274 271 270 270 270 270 270 272 272 273 278
233 237 239 241 243 246 248 250 252 255 256 257 257 259 261 264 266 268 271 272 273 275 276 276 276 276 275 273 272 270 270 269 271 271 271 274 276 277
236 236 237 240 243 246 248 250 252 254 257 258 259 261 263 266 269 270 271 274 276 276 277 278 278 276 274 273 273 274 267 269 274 276 273 274 275 280
235 236 238 239 242 245 247 249 251 253 255 257 260 263 265 266 268 270 272 274 275 280 281 281 282 279 279 276 275 278 272 271 281 280 285 287 287 289
240 239 238 239 241 243 245 247 250 253 255 258 260 262 264 265 266 268 272 275 275 277 279 280 283 281 279 275 280 278 275 276 282 283 283 286 289 290
234 236 238 240 241 243 245 246 249 253 256 259 261 263 265 263 264 266 268 274 275 276 274 275 279 278 280 275 275 273 273 279 281 287 290 296 291 284
234 235 237 238 240 243 245 247 250 253 256 259 262 263 264 264 263 262 266 273 274 273 272 270 276 278 270 269 272 277 281 283 282 289 292 295 295 283
237 237 239 240 243 245 248 250 252 254 255 257 259 262 264 264 264 264 265 272 272 272 269 271 268 272 269 271 271 273 274 276 281 288 293 289 293 288
239 239 240 243 246 249 250 251 251 250 251 249 250 257 261 264 274 270 270 269 268 267 266 267 266 266 267 271 271 264 271 277 278 283 289 290 287 281
239 242 241 243 247 251 252 252 250 249 247 248 253 260 262 267 275 275 272 268 264 260 261 264 262 264 268 265 261 262 273 277 278 282 285 285 279 277
243 242 242 247 250 252 251 253 251 253 253 253 255 259 262 265 276 279 277 268 260 257 260 263 260 266 262 264 266 268 269 274 280 283 282 279 279 279
238 237 242 247 250 251 251 254 258 258 257 257 254 255 263 267 274 279 273 266 260 260 258 259 260 257 259 263 264 265 271 279 284 279 276 277 277 280
232 235 243 247 251 250 250 254 259 261 259 255 256 257 260 267 274 279 275 270 266 258 254 257 258 259 261 264 268 271 276 281 276 275 276 278 281 283
232 235 242 245 248 250 251 257 263 259 258 255 258 259 263 268 268 272 272 271 269 264 260 258 258 263 266 270 276 277 272 271 276 279 281 282 284 285
232 234 239 244 246 248 251 258 267 253 253 258 260 258 260 263 268 271 270 270 271 269 266 265 265 270 273 270 268 270 274 278 281 283 285 286 287 289
231 231 235 242 244 249 251 251 267 261 257 253 258 257 258 265 265 262 269 273 272 269 268 265 264 268 270 272 273 275 277 280 284 286 289 292 292 293
234 232 231 239 243 245 250 254 254 265 262 251 251 256 258 259 258 261 263 274 277 273 271 275 274 274 275 275 276 279 283 286 289 292 294 294 293 293
229 231 230 236 239 244 249 250 256 256 261 260 244 252 255 255 258 262 264 269 272 275 275 277 278 279 279 281 283 285 288 290 290 290 291 292 292 292
231 233 234 235 240 242 246 251 252 255 255 258 262 260 267 264 269 262 261 270 272 275 276 278 280 280 281 283 286 289 290 290 291 293 293 293 294 294